DLH77X LEZL-EDDF

Flight info

Callsign DLH77X
Flight time N/A
Altitude 34000
Route HIJ DCT PARKA DCT TLD DCT SIE DCT BASIM DCT GASMO DCT VABAR T430 LPA DCT GOSVI DCT TOPTU DCT TOU DCT GAI DCT MEN DCT NINUN DCT LATAM DCT ETREK DCT LTP DCT SOPLO DCT OMASI DCT KINNI DCT SOSAL DCT KORED DCT BERSU N871 DITON/N0434F350 DCT LADOL/N0438F360 T163 EMPAX EMPAX5D
Aircraft A21N/M-SDE2E3FGIJ1LORWXYZ/HB1

Departure

Time 2026-04-21 14:22
Airport Seville Airport (LEZL)

Arrival

Time N/A
Airport Frankfurt Main Airport (EDDF)
Time Latitude Longitude Altitude Speed Heading
2026-04-21 13:55 37.42214 -5.89947 99 ft 0 kts 314°
2026-04-21 14:09 37.42202 -5.89931 99 ft 4 kts 309°
2026-04-21 14:10 37.42187 -5.89903 98 ft 4 kts 293°
2026-04-21 14:10 37.42182 -5.89872 98 ft 4 kts 261°
2026-04-21 14:10 37.42189 -5.89852 99 ft 1 kts 224°
2026-04-21 14:10 37.42191 -5.89849 99 ft 0 kts 224°
2026-04-21 14:17 37.42187 -5.89855 99 ft 2 kts 224°
2026-04-21 14:17 37.42166 -5.89880 88 ft 6 kts 224°
2026-04-21 14:17 37.42130 -5.89925 99 ft 9 kts 225°
2026-04-21 14:18 37.42080 -5.89988 99 ft 11 kts 225°
2026-04-21 14:18 37.42040 -5.90080 102 ft 13 kts 221°
2026-04-21 14:18 37.41976 -5.90163 101 ft 15 kts 267°
2026-04-21 14:18 37.41980 -5.90303 100 ft 17 kts 270°
2026-04-21 14:19 37.41979 -5.90455 99 ft 18 kts 269°
2026-04-21 14:19 37.41979 -5.90619 98 ft 19 kts 270°
2026-04-21 14:19 37.41979 -5.90793 97 ft 20 kts 270°
2026-04-21 14:19 37.41978 -5.90977 96 ft 22 kts 269°
2026-04-21 14:20 37.41977 -5.91126 95 ft 15 kts 269°
2026-04-21 14:20 37.41969 -5.91264 97 ft 16 kts 245°
2026-04-21 14:20 37.41872 -5.91295 98 ft 18 kts 137°
2026-04-21 14:20 37.41810 -5.91187 97 ft 16 kts 120°
2026-04-21 14:21 37.41789 -5.91096 96 ft 0 kts 90°
2026-04-21 14:21 37.41789 -5.90922 99 ft 51 kts 90°
2026-04-21 14:21 37.41779 -5.90178 102 ft 116 kts 92°
2026-04-21 14:22 37.41790 -5.88933 109 ft 166 kts 88°
2026-04-21 14:22 37.41831 -5.87383 431 ft 176 kts 89°
2026-04-21 14:22 37.41892 -5.85874 1017 ft 174 kts 93°
2026-04-21 14:22 37.41967 -5.84324 1483 ft 181 kts 94°
2026-04-21 14:23 37.41990 -5.82703 1895 ft 189 kts 101°
2026-04-21 14:23 37.41899 -5.80997 2387 ft 206 kts 91°
2026-04-21 14:23 37.42194 -5.79166 2936 ft 220 kts 82°
2026-04-21 14:23 37.42691 -5.77274 3460 ft 239 kts 67°
2026-04-21 14:24 37.43801 -5.75586 3827 ft 268 kts 38°
2026-04-21 14:24 37.45495 -5.74408 4291 ft 288 kts 26°
2026-04-21 14:24 37.47347 -5.73329 5014 ft 297 kts 25°
2026-04-21 14:24 37.49229 -5.72231 5868 ft 300 kts 25°
2026-04-21 14:25 37.51139 -5.71102 6661 ft 306 kts 25°
2026-04-21 14:25 37.53065 -5.69951 7491 ft 308 kts 25°
2026-04-21 14:25 37.55005 -5.68779 8305 ft 311 kts 25°
2026-04-21 14:25 37.56969 -5.67590 9095 ft 316 kts 25°
2026-04-21 14:26 37.58980 -5.66392 9857 ft 321 kts 25°
2026-04-21 14:26 37.61040 -5.65164 10328 ft 336 kts 25°
2026-04-21 14:26 37.63206 -5.63861 10708 ft 353 kts 25°
2026-04-21 14:26 37.65456 -5.62502 11266 ft 363 kts 25°
2026-04-21 14:27 37.67717 -5.61131 11980 ft 367 kts 24°
2026-04-21 14:27 37.70028 -5.59727 12738 ft 371 kts 24°
2026-04-21 14:27 37.72365 -5.58306 13480 ft 375 kts 24°
2026-04-21 14:27 37.74736 -5.56863 14154 ft 379 kts 24°
2026-04-21 14:28 37.77122 -5.55411 14865 ft 382 kts 24°
2026-04-21 14:28 37.79528 -5.53938 15592 ft 386 kts 25°
2026-04-21 14:28 37.81957 -5.52454 16294 ft 389 kts 24°
2026-04-21 14:28 37.84400 -5.50960 16985 ft 392 kts 25°
2026-04-21 14:29 37.86867 -5.49455 17690 ft 395 kts 25°
2026-04-21 14:29 37.89349 -5.47938 18332 ft 398 kts 25°
2026-04-21 14:29 37.91858 -5.46406 18883 ft 402 kts 25°
2026-04-21 14:29 37.94380 -5.44864 19438 ft 404 kts 25°
2026-04-21 14:30 37.96928 -5.43304 19978 ft 408 kts 25°
2026-04-21 14:30 37.99498 -5.41728 20509 ft 412 kts 25°
2026-04-21 14:30 38.02079 -5.40142 21078 ft 413 kts 25°
2026-04-21 14:30 38.04677 -5.38547 21593 ft 417 kts 25°
2026-04-21 14:31 38.07301 -5.36937 22114 ft 421 kts 25°
2026-04-21 14:31 38.09939 -5.35313 22634 ft 424 kts 25°
2026-04-21 14:31 38.12604 -5.33667 23149 ft 427 kts 26°
2026-04-21 14:31 38.15273 -5.31988 23615 ft 429 kts 26°
2026-04-21 14:32 38.17953 -5.30306 24053 ft 430 kts 25°
2026-04-21 14:32 38.20649 -5.28630 24482 ft 432 kts 25°
2026-04-21 14:32 38.23358 -5.26946 24848 ft 434 kts 25°
2026-04-21 14:32 38.26078 -5.25260 25200 ft 436 kts 25°
2026-04-21 14:33 38.28823 -5.23585 25550 ft 438 kts 25°
2026-04-21 14:33 38.31582 -5.21916 25885 ft 441 kts 25°
2026-04-21 14:33 38.34353 -5.20216 26214 ft 443 kts 25°
2026-04-21 14:33 38.37128 -5.18502 26539 ft 445 kts 25°
2026-04-21 14:34 38.39917 -5.16774 26863 ft 447 kts 25°
2026-04-21 14:34 38.42712 -5.15039 27184 ft 449 kts 25°
2026-04-21 14:34 38.45524 -5.13279 27565 ft 451 kts 26°
2026-04-21 14:34 38.48389 -5.11605 27936 ft 453 kts 19°
2026-04-21 14:35 38.51425 -5.10548 28288 ft 453 kts
2026-04-21 14:35 38.54558 -5.10305 28644 ft 451 kts 355°
2026-04-21 14:35 38.57695 -5.10588 28972 ft 453 kts 352°
2026-04-21 14:35 38.60844 -5.10947 29294 ft 456 kts 352°
2026-04-21 14:36 38.64009 -5.11300 29624 ft 458 kts 352°
2026-04-21 14:36 38.67195 -5.11639 29944 ft 460 kts 352°
2026-04-21 14:36 38.70393 -5.11968 30219 ft 462 kts 353°
2026-04-21 14:36 38.73604 -5.12296 30491 ft 464 kts 352°
2026-04-21 14:37 38.76826 -5.12625 30760 ft 466 kts 353°
2026-04-21 14:37 38.80065 -5.12955 31045 ft 467 kts 353°
2026-04-21 14:37 38.83308 -5.13284 31317 ft 469 kts 353°
2026-04-21 14:37 38.86562 -5.13615 31631 ft 469 kts 352°
2026-04-21 14:38 38.89769 -5.13943 32002 ft 467 kts 352°
2026-04-21 14:38 38.93046 -5.14278 32364 ft 466 kts 352°
2026-04-21 14:38 38.96241 -5.14504 32675 ft 467 kts 358°
2026-04-21 14:38 38.99480 -5.14064 32987 ft 470 kts 11°
2026-04-21 14:39 39.02586 -5.12771 33270 ft 471 kts 24°
2026-04-21 14:39 39.05441 -5.10696 33524 ft 472 kts 33°
2026-04-21 14:39 39.08177 -5.08366 33796 ft 471 kts 34°
2026-04-21 14:40 39.13616 -5.03709 33851 ft 468 kts 33°
2026-04-21 14:40 39.19080 -4.99152 33839 ft 468 kts 32°
2026-04-21 14:41 39.24572 -4.94641 33824 ft 468 kts 32°
2026-04-21 14:41 39.30047 -4.90097 33836 ft 467 kts 32°
2026-04-21 14:42 39.35516 -4.85560 33839 ft 467 kts 32°
2026-04-21 14:42 39.40973 -4.80992 33840 ft 468 kts 32°
2026-04-21 14:43 39.46443 -4.76430 33851 ft 468 kts 32°
2026-04-21 14:43 39.51910 -4.71854 33867 ft 467 kts 32°
2026-04-21 14:44 39.57366 -4.67275 33867 ft 468 kts 32°
2026-04-21 14:44 39.62822 -4.62684 33848 ft 468 kts 32°
2026-04-21 14:45 39.68276 -4.58084 33845 ft 467 kts 32°
2026-04-21 14:45 39.73714 -4.53490 33860 ft 465 kts 31°
2026-04-21 14:46 39.79088 -4.48940 33851 ft 464 kts 31°
2026-04-21 14:46 39.84504 -4.44349 33850 ft 464 kts 31°
2026-04-21 14:47 39.89916 -4.39752 33836 ft 464 kts 31°
2026-04-21 14:47 39.95320 -4.35144 33853 ft 464 kts 31°
2026-04-21 14:48 40.01014 -4.31265 33837 ft 461 kts 22°
2026-04-21 14:48 40.06840 -4.27741 33845 ft 461 kts 22°
2026-04-21 14:49 40.12658 -4.24200 33847 ft 461 kts 22°
2026-04-21 14:49 40.18474 -4.20642 33843 ft 461 kts 23°
2026-04-21 14:50 40.23308 -4.17678 33862 ft 462 kts 23°
2026-04-21 14:50 40.30110 -4.13505 33858 ft 462 kts 23°
2026-04-21 14:51 40.34946 -4.10528 33854 ft 462 kts 23°
2026-04-21 14:51 40.40756 -4.06946 33890 ft 462 kts 23°
2026-04-21 14:52 40.46598 -4.03345 33878 ft 465 kts 23°
2026-04-21 14:52 40.52460 -3.99720 33889 ft 466 kts 24°
2026-04-21 14:53 40.58321 -3.96092 33892 ft 466 kts 23°
2026-04-21 14:53 40.64174 -3.92446 33902 ft 465 kts 23°
2026-04-21 14:54 40.70038 -3.88811 33898 ft 465 kts 24°
2026-04-21 14:54 40.75890 -3.85163 33909 ft 465 kts 24°
2026-04-21 14:55 40.81739 -3.81513 33882 ft 464 kts 23°
2026-04-21 14:55 40.87566 -3.77871 33887 ft 464 kts 23°
2026-04-21 14:56 40.93403 -3.74208 33876 ft 464 kts 23°
2026-04-21 14:56 40.99245 -3.70542 33876 ft 464 kts 23°
2026-04-21 14:57 41.05077 -3.66865 33874 ft 464 kts 23°
2026-04-21 14:57 41.10908 -3.63184 33874 ft 464 kts 23°
2026-04-21 14:58 41.16591 -3.59151 33860 ft 466 kts 33°
2026-04-21 14:58 41.21857 -3.54127 33864 ft 466 kts 34°
2026-04-21 14:59 41.27088 -3.49124 33861 ft 466 kts 34°
2026-04-21 14:59 41.32342 -3.44067 33856 ft 465 kts 35°
2026-04-21 15:00 41.37593 -3.38994 33853 ft 467 kts 34°
2026-04-21 15:00 41.42861 -3.33920 33845 ft 467 kts 34°
2026-04-21 15:01 41.48137 -3.28856 33837 ft 467 kts 34°
2026-04-21 15:01 41.53399 -3.23781 33844 ft 464 kts 34°
2026-04-21 15:02 41.58602 -3.18745 33823 ft 462 kts 34°
2026-04-21 15:02 41.63795 -3.13694 33824 ft 461 kts 34°
2026-04-21 15:03 41.69001 -3.08657 33816 ft 462 kts 34°
2026-04-21 15:03 41.74202 -3.03592 33821 ft 462 kts 33°
2026-04-21 15:04 41.79388 -2.98532 33815 ft 461 kts 33°
2026-04-21 15:04 41.84561 -2.93462 33817 ft 461 kts 33°
2026-04-21 15:05 41.89727 -2.88378 33813 ft 460 kts 33°
2026-04-21 15:05 41.97488 -2.80789 33811 ft 460 kts 33°
2026-04-21 15:06 42.02676 -2.75726 33817 ft 460 kts 34°
2026-04-21 15:06 42.07834 -2.70623 33801 ft 460 kts 34°
2026-04-21 15:07 42.12982 -2.65509 33806 ft 459 kts 34°
2026-04-21 15:07 42.18115 -2.60416 33796 ft 458 kts 34°
2026-04-21 15:08 42.23261 -2.55333 33791 ft 458 kts 34°
2026-04-21 15:08 42.28393 -2.50242 33786 ft 458 kts 34°
2026-04-21 15:09 42.33532 -2.45137 33788 ft 458 kts 34°
2026-04-21 15:09 42.38663 -2.40022 33793 ft 459 kts 34°
2026-04-21 15:10 42.43606 -2.34539 33784 ft 462 kts 46°
2026-04-21 15:10 42.45545 -2.31070 33784 ft 464 kts 58°
2026-04-21 15:10 42.46920 -2.27120 33786 ft 465 kts 71°
2026-04-21 15:11 42.48445 -2.18666 33790 ft 466 kts 78°
2026-04-21 15:11 42.49808 -2.10088 33780 ft 466 kts 78°
2026-04-21 15:12 42.51222 -2.01519 33773 ft 465 kts 78°
2026-04-21 15:12 42.52635 -1.92958 33770 ft 465 kts 78°
2026-04-21 15:13 42.54035 -1.84385 33777 ft 467 kts 77°
2026-04-21 15:13 42.55428 -1.75787 33788 ft 467 kts 78°
2026-04-21 15:14 42.56822 -1.67189 33797 ft 467 kts 77°
2026-04-21 15:14 42.58212 -1.58586 33800 ft 467 kts 78°
2026-04-21 15:15 42.59589 -1.49979 33795 ft 466 kts 77°
2026-04-21 15:15 42.60958 -1.41385 33810 ft 466 kts 77°
2026-04-21 15:16 42.62308 -1.32790 33802 ft 466 kts 77°
2026-04-21 15:16 42.63676 -1.24179 33792 ft 467 kts 77°
2026-04-21 15:17 42.65026 -1.15554 33795 ft 467 kts 78°
2026-04-21 15:17 42.66362 -1.06941 33810 ft 465 kts 77°
2026-04-21 15:18 42.67714 -0.98355 33812 ft 465 kts 77°
2026-04-21 15:18 42.69033 -0.89760 33822 ft 465 kts 77°
2026-04-21 15:19 42.70341 -0.81148 33826 ft 464 kts 77°
2026-04-21 15:19 42.71666 -0.72569 33845 ft 463 kts 77°
2026-04-21 15:20 42.72963 -0.64062 33850 ft 462 kts 77°
2026-04-21 15:20 42.74264 -0.55454 33860 ft 462 kts 77°
2026-04-21 15:21 42.75531 -0.46931 33855 ft 463 kts 77°
2026-04-21 15:21 42.76821 -0.38363 33884 ft 462 kts 77°
2026-04-21 15:22 42.78109 -0.29790 33901 ft 462 kts 77°
2026-04-21 15:22 42.79577 -0.21292 33877 ft 461 kts 68°
2026-04-21 15:23 42.80959 -0.17381 33875 ft 457 kts 55°
2026-04-21 15:23 42.82840 -0.13915 33883 ft 455 kts 48°
2026-04-21 15:23 42.86903 -0.07294 33878 ft 455 kts 47°
2026-04-21 15:24 42.90930 -0.00628 33852 ft 455 kts 48°
2026-04-21 15:24 42.94916 0.06030 33880 ft 452 kts 48°
2026-04-21 15:25 42.98891 0.12686 33885 ft 452 kts 48°
2026-04-21 15:25 43.02865 0.19350 33879 ft 452 kts 48°
2026-04-21 15:26 43.06828 0.26028 33867 ft 452 kts 48°
2026-04-21 15:26 43.10794 0.32703 33853 ft 452 kts 48°
2026-04-21 15:27 43.14756 0.39391 33849 ft 452 kts 49°
2026-04-21 15:27 43.18714 0.46091 33839 ft 452 kts 48°
2026-04-21 15:28 43.22667 0.52803 33841 ft 452 kts 49°
2026-04-21 15:28 43.26626 0.59529 33841 ft 454 kts 49°
2026-04-21 15:29 43.30590 0.66282 33834 ft 454 kts 49°
2026-04-21 15:29 43.34546 0.73039 33835 ft 454 kts 49°
2026-04-21 15:30 43.38488 0.79801 33833 ft 454 kts 49°
2026-04-21 15:30 43.42421 0.86543 33835 ft 455 kts 49°
2026-04-21 15:31 43.46404 0.93392 33842 ft 456 kts 49°
2026-04-21 15:31 43.50367 1.00227 33836 ft 456 kts 49°
2026-04-21 15:32 43.54322 1.07063 33837 ft 456 kts 49°
2026-04-21 15:32 43.58274 1.13918 33834 ft 456 kts 49°
2026-04-21 15:33 43.62208 1.20751 33823 ft 458 kts 49°
2026-04-21 15:33 43.66172 1.27646 33816 ft 459 kts 48°
2026-04-21 15:34 43.70054 1.34658 33818 ft 460 kts 50°
2026-04-21 15:34 43.73847 1.41775 33821 ft 460 kts 50°
2026-04-21 15:35 43.77645 1.48886 33826 ft 460 kts 50°
2026-04-21 15:35 43.81443 1.56014 33835 ft 460 kts 50°
2026-04-21 15:36 43.85237 1.63163 33843 ft 461 kts 50°
2026-04-21 15:36 43.89028 1.70321 33850 ft 461 kts 50°
2026-04-21 15:37 43.92816 1.77494 33856 ft 461 kts 50°
2026-04-21 15:37 43.96549 1.84736 33862 ft 461 kts 52°
2026-04-21 15:38 43.99590 1.90810 33861 ft 462 kts 52°
2026-04-21 15:38 44.03250 1.98147 33870 ft 461 kts 52°
2026-04-21 15:39 44.06893 2.05484 33874 ft 461 kts 52°
2026-04-21 15:39 44.10532 2.12824 33877 ft 461 kts 52°
2026-04-21 15:40 44.14174 2.20180 33886 ft 461 kts 52°
2026-04-21 15:40 44.17797 2.27551 33886 ft 461 kts 52°
2026-04-21 15:41 44.21436 2.34925 33916 ft 461 kts 51°
2026-04-21 15:41 44.25049 2.42293 33904 ft 460 kts 51°
2026-04-21 15:42 44.28658 2.49664 33908 ft 461 kts 51°
2026-04-21 15:42 44.32272 2.57055 33905 ft 461 kts 51°
2026-04-21 15:43 44.35874 2.64451 33905 ft 460 kts 51°
2026-04-21 15:43 44.39463 2.71860 33930 ft 460 kts 51°
2026-04-21 15:44 44.43041 2.79252 33913 ft 459 kts 51°
2026-04-21 15:44 44.46613 2.86645 33916 ft 459 kts 51°
2026-04-21 15:45 44.50185 2.94046 33912 ft 459 kts 51°
2026-04-21 15:45 44.53752 3.01453 33912 ft 459 kts 51°
2026-04-21 15:46 44.57313 3.08875 33918 ft 459 kts 51°
2026-04-21 15:46 44.60842 3.16321 33923 ft 459 kts 53°
2026-04-21 15:47 44.64021 3.24134 33913 ft 461 kts 55°
2026-04-21 15:47 44.67149 3.31994 33926 ft 461 kts 55°
2026-04-21 15:48 44.70298 3.39845 33917 ft 461 kts 55°
2026-04-21 15:48 44.73439 3.47703 33927 ft 461 kts 55°
2026-04-21 15:49 44.76547 3.55522 33924 ft 461 kts 56°
2026-04-21 15:49 44.79673 3.63408 33928 ft 461 kts 56°
2026-04-21 15:50 44.82789 3.71283 33941 ft 461 kts 56°
2026-04-21 15:50 44.85908 3.79183 33938 ft 461 kts 56°
2026-04-21 15:51 44.89021 3.87093 33936 ft 462 kts 55°
2026-04-21 15:51 44.92134 3.95026 33937 ft 462 kts 55°
2026-04-21 15:52 44.95230 4.02962 33953 ft 461 kts 55°
2026-04-21 15:52 44.98324 4.10898 33945 ft 461 kts 55°
2026-04-21 15:53 45.01418 4.18841 33955 ft 461 kts 55°
2026-04-21 15:53 45.04495 4.26795 33951 ft 461 kts 55°
2026-04-21 15:54 45.07576 4.34751 33956 ft 461 kts 55°
2026-04-21 15:54 45.10653 4.42722 33972 ft 461 kts 55°
2026-04-21 15:55 45.13713 4.50682 33954 ft 460 kts 55°
2026-04-21 15:55 45.16764 4.58653 33959 ft 460 kts 55°
2026-04-21 15:56 45.19813 4.66631 33967 ft 460 kts 54°
2026-04-21 15:56 45.22860 4.74618 33966 ft 460 kts 54°
2026-04-21 15:57 45.25901 4.82616 33959 ft 460 kts 54°
2026-04-21 15:57 45.28927 4.90610 33990 ft 459 kts 54°
2026-04-21 15:58 45.31920 4.98530 33980 ft 458 kts 54°
2026-04-21 15:58 45.34944 5.06563 33989 ft 457 kts 54°
2026-04-21 15:59 45.37944 5.14544 33994 ft 458 kts 54°
2026-04-21 15:59 45.40918 5.22480 33995 ft 458 kts 54°
2026-04-21 16:00 45.43906 5.30482 33993 ft 458 kts 54°
2026-04-21 16:00 45.46889 5.38497 34008 ft 458 kts 54°
2026-04-21 16:01 45.50404 5.45862 34014 ft 439 kts 36°
2026-04-21 16:01 45.54904 5.51645 33988 ft 435 kts 32°
2026-04-21 16:02 45.59445 5.57358 33972 ft 436 kts 33°
2026-04-21 16:02 45.63967 5.63136 33976 ft 436 kts 33°
2026-04-21 16:03 45.68481 5.68929 33966 ft 437 kts 33°
2026-04-21 16:03 45.73008 5.74747 33959 ft 437 kts 33°
2026-04-21 16:04 45.77525 5.80574 33968 ft 438 kts 33°
2026-04-21 16:04 45.82055 5.86411 33970 ft 438 kts 33°
2026-04-21 16:05 45.86579 5.92251 33990 ft 438 kts 34°
2026-04-21 16:05 45.91100 5.98090 33966 ft 437 kts 33°
2026-04-21 16:06 45.95629 6.03923 33962 ft 438 kts 33°
2026-04-21 16:06 46.00148 6.09788 33965 ft 438 kts 34°
2026-04-21 16:07 46.04654 6.15649 33974 ft 436 kts 34°
2026-04-21 16:07 46.09139 6.21540 33985 ft 438 kts 36°
2026-04-21 16:08 46.15666 6.30782 33989 ft 439 kts 36°
2026-04-21 16:09 46.19978 6.36924 33999 ft 438 kts 37°
2026-04-21 16:09 46.24301 6.43134 34002 ft 440 kts 36°
2026-04-21 16:10 46.28655 6.49378 33999 ft 441 kts 36°
2026-04-21 16:10 46.32999 6.55601 33963 ft 439 kts 36°
2026-04-21 16:11 46.37345 6.61837 33987 ft 440 kts 36°
2026-04-21 16:11 46.41704 6.68111 33995 ft 442 kts 36°
2026-04-21 16:12 46.45358 6.73382 33992 ft 442 kts 36°
2026-04-21 16:12 46.50425 6.80706 33993 ft 443 kts 36°
2026-04-21 16:13 46.54790 6.87002 34002 ft 443 kts 36°
2026-04-21 16:13 46.58843 6.93879 34015 ft 451 kts 43°
2026-04-21 16:14 46.62773 7.00978 34009 ft 450 kts 42°
2026-04-21 16:14 46.66692 7.08053 34016 ft 449 kts 42°
2026-04-21 16:15 46.70620 7.15146 34012 ft 450 kts 43°
2026-04-21 16:15 46.74529 7.22246 34036 ft 448 kts 43°
2026-04-21 16:16 46.78438 7.29350 34023 ft 449 kts 43°
2026-04-21 16:16 46.82345 7.36466 34042 ft 450 kts 42°
2026-04-21 16:17 46.86263 7.43622 34022 ft 451 kts 43°
2026-04-21 16:17 46.90166 7.50801 34015 ft 452 kts 42°
2026-04-21 16:18 46.94083 7.58011 34035 ft 454 kts 42°
2026-04-21 16:18 46.98015 7.65264 34031 ft 455 kts 42°
2026-04-21 16:19 47.01944 7.72537 34018 ft 455 kts 42°
2026-04-21 16:19 47.05853 7.79790 34025 ft 453 kts 42°
2026-04-21 16:20 47.09762 7.87059 34028 ft 453 kts 42°
2026-04-21 16:20 47.13625 7.94372 34056 ft 457 kts 46°
2026-04-21 16:21 47.17064 8.02311 34048 ft 461 kts 49°
2026-04-21 16:21 47.20457 8.10308 34055 ft 461 kts 49°
2026-04-21 16:22 47.23286 8.16954 34053 ft 461 kts 49°
2026-04-21 16:22 47.27258 8.26313 34061 ft 462 kts 49°
2026-04-21 16:23 47.31198 8.33489 34088 ft 438 kts 30°
2026-04-21 16:23 47.33672 8.35935 34081 ft 422 kts 18°
2026-04-21 16:23 47.36296 8.37792 34079 ft 417 kts 15°
2026-04-21 16:24 47.41531 8.41358 34076 ft 418 kts 15°
2026-04-21 16:24 47.46785 8.45035 34081 ft 418 kts 16°
2026-04-21 16:25 47.52029 8.48760 34101 ft 419 kts 17°
2026-04-21 16:25 47.56434 8.51891 34087 ft 419 kts 17°
2026-04-21 16:26 47.61663 8.55622 34081 ft 413 kts 17°
2026-04-21 16:26 47.66818 8.59295 34098 ft 419 kts 17°
2026-04-21 16:27 47.72090 8.63068 34108 ft 421 kts 18°
2026-04-21 16:27 47.77357 8.66851 34110 ft 421 kts 18°
2026-04-21 16:28 47.82629 8.70641 34112 ft 421 kts 18°
2026-04-21 16:28 47.87888 8.74440 34114 ft 417 kts 18°
2026-04-21 16:29 47.93120 8.78212 34141 ft 422 kts 18°
2026-04-21 16:29 47.98422 8.82049 34140 ft 424 kts 19°
2026-04-21 16:30 48.03727 8.85904 34132 ft 424 kts 19°
2026-04-21 16:30 48.09035 8.89762 34140 ft 424 kts 19°
2026-04-21 16:31 48.14331 8.93620 34146 ft 420 kts 18°